Weather History for Mattoon, IL

Change the Weather History Date:

Monday, November 12, 2012

  Actual Average Record
Temperature  
Mean Temperature 40 °F 45 °F  
Max Temperature 50 °F 54 °F 73 °F (2010)
Min Temperature 30 °F 36 °F 10 °F (1986)
Degree Days  
Heating Degree Days 25 20  
Month to date heating degree days 245 214  
Since 1 July heating degree days 722 618  
Cooling Degree Days 0 0  
Month to date cooling degree days 0 0  
Year to date cooling degree days 1382 1057  
Moisture  
Dew Point 29 °F    
Average Humidity 75    
Maximum Humidity 100    
Minimum Humidity 50    
Precipitation  
Precipitation 0.28 in 0.13 in 1.80 in (1992)
Month to date precipitation 1.19 1.38  
Year to date precipitation 30.56 33.18  
Sea Level Pressure  
Sea Level Pressure 30.22 in    
Wind  
Wind Speed 13 mph (West)    
Max Wind Speed 24 mph    
Max Gust Speed 31 mph    
Visibility 9 miles    
Events Rain , Snow    
T = Trace of Precipitation, MM = Missing Value Source: NWS Daily Summary

Daily Weather History Graph

Daily Weather History Graph

Search for Another Location

Airport:

Trip Planner

Search our weather history database for the weather conditions in past years. The results will help you decide how hot, cold, wet, or windy it might be!

Date:

Astronomy

Nov. 12, 2012 Rise Set
Actual Time 6:34 AM CST 4:39 PM CST
Civil Twilight 6:05 AM CST 5:08 PM CST
Nautical Twilight 5:33 AM CST 5:40 PM CST
Astronomical Twilight 5:01 AM CST 6:12 PM CST
Moon 4:59 AM CST (11/12) 3:44 PM CST (11/12)
Length of Visible Light 11h 02m
Length of Day
10h 05m
Waning Crescent, 2% of the Moon is Illuminated
Nov 12
Waning Crescent
Nov 13
New
Nov 20
First Quarter
Nov 28
Full
Dec 6
Last Quarter

Hourly Weather History & Observations

Time (CST) Temp. Windchill Dew Point Humidity Pressure Visibility Wind Dir Wind Speed Gust Speed Precip Events Conditions
12:53 AM 41.0 °F 33.9 °F 39.9 °F 96% 30.02 in 6.0 mi NW 12.7 mph - 0.09 in Rain Rain
1:53 AM 37.0 °F 26.2 °F 36.0 °F 96% 30.06 in 9.0 mi NW 21.9 mph 27.6 mph 0.08 in Rain Light Rain
2:03 AM 37.4 °F 27.2 °F 35.6 °F 93% 30.08 in 10.0 mi WNW 19.6 mph 28.8 mph 0.01 in Rain Light Rain
2:13 AM 37.4 °F 27.2 °F 35.6 °F 93% 30.04 in 5.0 mi NW 19.6 mph 26.5 mph 0.03 in Rain Rain
2:15 AM 37.4 °F 27.2 °F 35.6 °F 93% 30.04 in 4.0 mi NW 19.6 mph 25.3 mph 0.04 in Rain Rain
2:30 AM 35.6 °F 25.9 °F 35.6 °F 100% 30.04 in 8.0 mi NW 16.1 mph - 0.06 in Rain Light Rain
2:53 AM 36.0 °F 24.7 °F 35.1 °F 97% 30.10 in 9.0 mi WNW 21.9 mph 28.8 mph 0.09 in Rain Light Rain
3:02 AM 35.6 °F 24.2 °F 33.8 °F 93% 30.08 in 10.0 mi WNW 21.9 mph 27.6 mph 0.01 in Rain Light Rain
3:09 AM 35.6 °F 25.2 °F 33.8 °F 93% 30.09 in 9.0 mi NW 18.4 mph 27.6 mph 0.01 in Rain Light Rain
3:53 AM 35.1 °F 25.2 °F 33.1 °F 92% 30.08 in 10.0 mi NW 16.1 mph - 0.03 in Rain Light Rain
4:53 AM 34.0 °F 22.1 °F 33.1 °F 96% 30.13 in 10.0 mi WNW 21.9 mph 26.5 mph 0.01 in   Overcast
5:31 AM 33.8 °F 22.8 °F 30.2 °F 87% 30.13 in 10.0 mi WNW 18.4 mph 27.6 mph 0.00 in   Overcast
5:53 AM 32.0 °F 20.1 °F 28.9 °F 88% 30.14 in 10.0 mi WNW 19.6 mph 25.3 mph 0.00 in   Overcast
6:53 AM 30.9 °F 18.7 °F 27.0 °F 85% 30.21 in 10.0 mi WNW 19.6 mph 24.2 mph N/A   Overcast
7:29 AM 30.2 °F 18.5 °F 24.8 °F 80% 30.22 in 10.0 mi West 17.3 mph - N/A   Scattered Clouds
7:53 AM 30.0 °F 18.7 °F 25.0 °F 82% 30.24 in 9.0 mi West 16.1 mph - 0.00 in Snow Light Snow
8:10 AM 30.2 °F 17.4 °F 24.8 °F 80% 30.23 in 10.0 mi WNW 20.7 mph - 0.00 in   Scattered Clouds
8:53 AM 30.9 °F 19.1 °F 24.1 °F 76% 30.25 in 10.0 mi West 18.4 mph 25.3 mph 0.00 in   Clear
9:53 AM 33.1 °F 24.4 °F 25.0 °F 72% 30.27 in 10.0 mi West 11.5 mph - N/A   Clear
10:53 AM 34.0 °F 24.2 °F 24.1 °F 67% 30.29 in 10.0 mi WSW 15.0 mph 20.7 mph N/A   Clear
11:53 AM 36.0 °F 27.5 °F 24.1 °F 62% 30.27 in 10.0 mi West 12.7 mph 24.2 mph N/A   Clear
12:53 PM 37.9 °F 30.5 °F 25.0 °F 60% 30.27 in 10.0 mi WSW 11.5 mph 23.0 mph N/A   Clear
1:53 PM 39.0 °F 30.3 °F 25.0 °F 57% 30.28 in 10.0 mi West 16.1 mph 25.3 mph N/A   Clear
2:53 PM 39.9 °F 30.5 °F 24.1 °F 53% 30.28 in 10.0 mi West 19.6 mph 25.3 mph N/A   Clear
3:53 PM 39.0 °F 31.4 °F 23.0 °F 53% 30.30 in 10.0 mi West 12.7 mph - N/A   Clear
4:53 PM 37.0 °F 31.6 °F 24.1 °F 59% 30.32 in 10.0 mi West 6.9 mph - N/A   Clear
5:53 PM 35.1 °F 31.0 °F 25.0 °F 67% 30.35 in 10.0 mi WSW 4.6 mph - N/A   Clear
6:53 PM 35.1 °F 31.0 °F 25.0 °F 67% 30.37 in 10.0 mi SW 4.6 mph - N/A   Clear
7:53 PM 36.0 °F 30.3 °F 25.0 °F 64% 30.38 in 10.0 mi SW 6.9 mph - N/A   Clear
8:53 PM 35.1 °F 30.1 °F 25.0 °F 67% 30.40 in 10.0 mi WSW 5.8 mph - N/A   Clear
9:53 PM 34.0 °F 29.8 °F 25.0 °F 70% 30.40 in 10.0 mi WSW 4.6 mph - N/A   Clear
10:53 PM 33.1 °F 28.7 °F 25.0 °F 72% 30.41 in 10.0 mi WSW 4.6 mph - N/A   Clear
11:53 PM 33.1 °F 28.7 °F 25.0 °F 72% 30.42 in 10.0 mi WSW 4.6 mph - N/A   Clear